Volver al catálogo

HELIOS 1A

ActivoMilitarPO
NORAD 23605·PAYLOAD·🇫🇷 France

Lanzado Jul 7, 1995 desde Guiana Space Centre

Loading…

Próximos Pases (próximas 24 horas)

TLE

ActualizadoSource: Space-Track

Época: Sep 14, 2026, 10:29 UTC

1 23605U 95033A   26257.43706073  .00001870  00000-0  13240-3 0  9997
2 23605  98.1824 153.2517 0013680  92.2443 268.0348 15.06134514681596

Sigue HELIOS 1A en tiempo real con AllMySat

Download on the App Store